www.pogodaiklimat.ru

Погода и климат >> Архив погоды >> Великобритания >> Норхолт


ПОГОДА в Норхолте

  • Прогноз погоды в Норхолте
  • Монитор погоды в Норхолте

АРХИВ ПОГОДЫ в Норхолте

Время (UTC), дата Ветер
(напр.,м/с)
 
Видим.   Явления Облачность Т
(С)
Тd
(С)
f
(%)
Тe
(С)
Тes
(С)
Комфортность P
(гПа)
Po
(гПа)
Тmin
(С)
Tmax
(С)
R
(мм)
R24
(мм)
S
(см)
19 10.06 С 7 12 км слаб. дождь 10/10 210 м
[St]
+10.8 +9.8 94 +7 +7 1011.1 1007.1
20 10.06 СВ 6 12 км н/о +11.4 +10.6 95 +8 +8 1011.0 1007.0
21 10.06 СВ 7 26 км н/о +11.5 +10.5 94 +8 +8 1010.7 1006.7
22 10.06 СВ 6 16 км н/о +11.5 +10.5 94 +8 +8 1010.7 1006.7
23 10.06 С 5 14 км н/о +11.3 +10.4 94 +9 +9 1010.4 1006.4
00 11.06 СВ 5 22 км н/о +11.1 +10.4 95 +8 +8 1010.1 1006.1 6
01 11.06 СВ 4 30 км н/о +11.6 +10.8 95 +9 +9 1009.7 1005.7
02 11.06 СВ 5 40 км н/о +11.9 +10.9 94 +9 +9 1009.4 1005.4
03 11.06 С 4 24 км н/о +11.6 +10.7 94 +9 +9 1009.5 1005.5
04 11.06 СВ 3 12 км н/о +11.7 +11.3 97 +10 +10 1009.5 1005.5
05 11.06 В 4 10 км н/о +12.4 +11.8 96 +10 +10 1010.0 1006.0
06 11.06 ЮВ 4 7000 м слаб. морось 10/10 150 м
[Sc]
+11.7 +10.7 94 +9 +9 1010.4 1006.4 +10.3 6
07 11.06 Ю 2 8000 м в посл. час морось 9/9 150 м
[Sc]
+12.2 +10.9 92 +11 +12 1010.8 1006.8
08 11.06 СВ 1 15 км 9/9 300 м
[Sc]
+13.1 +10.4 84 +13 +14 1011.3 1007.3
09 11.06 СВ 2 25 км {морось} 9/9 420 м
[Sc]
+13.6 +10.4 81 +13 +15 1011.3 1007.4
10 11.06 ЮЗ 1 25 км 9/9 420 м
[Sc]
+13.8 +10.9 83 +14 +16 1011.7 1007.8
11 11.06 СЗ 2 25 км 9/9 540 м
[Cu Sc]
+15.2 +10.7 74 +15 +17 1011.7 1007.7
12 11.06 З 2 30 км {морось} 9/9 750 м
[Cu Sc]
+16.5 +10.7 69 +17 +19 1011.7 1007.8 0.2
13 11.06 С 6 35 км 9/9 360 м
[Cu Sc]
+15.2 +12.0 81 +14 +14 1012.0 1008.1
14 11.06 С 6 40 км 9/9 360 м
[Sc]
+14.1 +11.1 82 +12 +13 1012.3 1008.4
15 11.06 СВ 7 40 км 9/9 330 м
[St]
+14.4 +11.2 81 +12 +13 1012.4 1008.5
16 11.06 С 6 40 км 9/9 330 м
[St]
+13.9 +10.8 82 +12 +12 1012.6 1008.7
17 11.06 СВ 8 40 км 9/9 330 м
[St]
+13.4 +10.3 81 +11 +11 1012.3 1008.4
18 11.06 СВ 6
{13}
40 км 9/9 330 м
[St]
+12.9 +10.0 83 +10 +10 1012.6 1008.7 +17.0 0.2
19 11.06 СВ 7 40 км 10/10 330 м
[St]
+12.4 +9.6 83 +9 +9 1012.8 1008.8
20 11.06 СВ 5 25 км 10/10 270 м
[St]
+11.7 +9.6 87 +9 +9 1013.2 1009.2
21 11.06 С 5 25 км н/о +11.4 +9.8 90 +9 +9 1013.2 1009.2
22 11.06 С 5 23 км н/о +11.1 +9.7 91 +8 +8 1013.1 1009.1
23 11.06 СВ 4 21 км н/о +11.1 +10.0 93 +9 +9 1012.8 1008.8
00 12.06 С 3 18 км н/о +11.0 +10.1 94 +9 +9 1012.2 1008.2
01 12.06 С 4 35 км н/о +11.2 +9.9 92 +9 +9 1012.1 1008.1
02 12.06 С 4 50 км н/о +10.9 +9.4 90 +9 +9 1011.5 1007.5
03 12.06 СВ 3 40 км н/о +10.8 +9.3 90 +9 +9 1011.1 1007.1
04 12.06 СВ 3 35 км н/о +10.8 +9.3 90 +9 +9 1010.9 1006.9
05 12.06 СВ 3 30 км н/о +10.7 +9.4 92 +9 +9 1010.7 1006.7
06 12.06 СВ 3 20 км 10/10 240 м
[St]
+11.0 +9.4 90 +9 +9 1010.9 1006.9 +10.7
07 12.06 С 2 25 км 9/9 300 м
[St]
+11.5 +9.3 86 +11 +11 1010.6 1006.6
08 12.06 С 2 25 км 9/9 360 м
[Cu Sc]
+12.1 +9.1 82 +11 +12 1010.2 1006.2
09 12.06 СЗ 2 25 км 9/9 450 м
[Cu Sc]
+13.1 +9.3 78 +13 +14 1009.9 1005.9
10 12.06 С 3 25 км 9/9 540 м
[Cu Sc]
+14.1 +9.4 73 +13 +15 1009.8 1005.8
11 12.06 СВ 3 30 км осадки на расстоянии 9/8 720 м
[Cu hum Ac As]
+15.1 +9.2 68 +14 +16 1009.9 1005.9
12 12.06 СВ 4 40 км слаб. дождь 9/5 660 м
[Sc Ci sp]
+15.2 +10.0 71 +14 +20 1009.5 1005.6 0.0
13 12.06 СВ 4 40 км слаб. дождь 10/5 630 м
[Sc As trans]
+14.7 +9.5 71 +14 +16 1009.4 1005.5
14 12.06 СВ 3 12 км слаб. дождь 9/8 360 м
[St Ac As]
+13.4 +10.8 84 +12 +14 1009.6 1005.6
15 12.06 В 3 8000 м н/о +13.0 +11.5 91 +12 +12 1009.5 1005.5
16 12.06 В 2 8000 м слаб. дождь 10/10 300 м
[Sc]
+12.9 +11.5 91 +12 +12 1009.1 1005.1
17 12.06 СВ 1 12 км слаб. дождь 10/10 270 м
[Sc]
+12.8 +10.7 87 +13 +13 1008.6 1004.7
18 12.06 СВ 1 12 км слаб. дождь 10/10 270 м
[Sc]
+12.9 +11.1 89 +13 +13 1008.1 1004.2 +15.3 4
19 12.06 С 2 10 км слаб. дождь 10/10 270 м
[Sc]
+12.8 +11.7 93 +12 +12 1008.0 1004.0
20 12.06 СЗ 3 6000 м слаб. дождь 10/10 300 м
[Sc]
+11.8 +10.7 93 +10 +10 1007.9 1004.0
21 12.06 штиль 0 5000 м дождь 10/10 360 м
[Sc]
+11.4 +10.6 95 +11 +11 1008.1 1004.1
22 12.06 З 1 3300 м н/о +11.1 +10.6 97 +11 +11 1007.9 1003.9
23 12.06 З 2 3200 м н/о +11.2 +10.9 98 +10 +10 1007.2 1003.2
00 13.06 ЮЗ 2 2400 м н/о +11.1 +10.8 98 +10 +10 1006.7 1002.7 6
01 13.06 ЮЗ 2 5000 м н/о +11.1 +10.9 99 +10 +10 1006.2 1002.2
02 13.06 ЮЗ 3 6000 м н/о +11.2 +10.8 97 +9 +9 1005.6 1001.6
03 13.06 ЮЗ 3 5000 м н/о +11.3 +10.9 97 +10 +10 1005.1 1001.2
04 13.06 ЮЗ 4 8000 м н/о +11.3 +10.7 96 +9 +9 1005.1 1001.2
05 13.06 ЮЗ 4 8000 м н/о +11.3 +10.8 97 +9 +9 1005.0 1001.1
06 13.06 Ю 4 8000 м слаб. дождь 10/9 150 м
[Sc Ac As]
+11.9 +11.3 96 +10 +10 1004.8 1000.9 +11.0 6
07 13.06 Ю 4 10 км слаб. дождь 9/9 270 м
[Sc Ac As]
+12.3 +11.2 93 +10 +10 1004.8 1000.8
08 13.06 ЮЗ 5 7000 м дождь 10/9 240 м
[Sc Ac As]
+12.2 +11.3 94 +10 +10 1004.8 1000.9
09 13.06 ЮЗ 5 8000 м дождь 10/9 300 м
[Cu Sc Ac As]
+11.7 +10.4 92 +9 +9 1004.8 1000.9
10 13.06 ЮЗ 5 12 км дождь 10/10 300 м
[Sc]
+12.1 +11.2 94 +10 +10 1005.0 1001.1
11 13.06 ЮЗ 6 10 км дождь 10/9 360 м
[Sc Ac As]
+11.7 +10.4 92 +9 +9 1005.1 1001.1
12 13.06 ЮЗ 5 20 км слаб. дождь 10/3 300 м
[St Ac As]
+12.7 +11.4 92 +10 +12 1005.1 1001.2 6
13 13.06 ЮЗ 7 18 км дождь 10/10 360 м
[Cu Sc]
+12.7 +11.2 91 +10 +10 1005.3 1001.3
14 13.06 ЮЗ 7 9000 м слаб. дождь 10/10 400 м
[Sc]
+13.0 +11.3 89 +10 +10 1005.2 1001.2
15 13.06 ЮЗ 7 30 км слаб. дождь 9/9 480 м
[Sc]
+13.4 +10.7 84 +11 +11 1005.1 1001.2
16 13.06 ЮЗ 7
{13}
8000 м дождь {морось} 10/10 300 м
[Sc]
+12.6 +11.2 91 +10 +10 1005.3 1001.4
17 13.06 ЮЗ 5 40 км в посл. час дождь {морось} 10/10 420 м
[Sc]
+13.6 +11.4 87 +12 +12 1005.2 1001.3
18 13.06 ЮЗ 5 40 км слаб. дождь {морось} 9/9 480 м
[Sc]
+13.6 +11.0 84 +12 +12 1005.4 1001.5 +14.0 7
19 13.06 ЮЗ 6 40 км слаб. дождь 9/9 420 м
[Sc]
+13.4 +11.2 87 +11 +11 1006.0 1002.0
20 13.06 ЮЗ 5 40 км в посл. час дождь 9/6 330 м
[Sc Ac trans]
+13.0 +11.0 88 +11 +11 1006.6 1002.6
21 13.06 ЮЗ 5 45 км н/о +12.5 +10.7 89 +10 +10 1007.6 1003.7
22 13.06 ЮЗ 3 45 км н/о +12.3 +10.8 91 +11 +11 1008.1 1004.1
23 13.06 ЮЗ 4 45 км н/о +12.3 +10.7 90 +10 +10 1008.4 1004.5
00 14.06 ЮЗ 3 45 км н/о +12.3 +10.8 91 +11 +11 1008.5 1004.5 0.0
01 14.06 Ю 3 25 км н/о +12.5 +11.4 93 +11 +11 1008.3 1004.4
02 14.06 Ю 3 10 км н/о +12.3 +11.6 95 +11 +11 1008.2 1004.2
03 14.06 ЮЗ 4 3900 м н/о +12.2 +11.6 96 +10 +10 1008.2 1004.3
04 14.06 Ю 4 13 км н/о +12.2 +11.4 95 +10 +10 1008.5 1004.6
05 14.06 Ю 3 9000 м н/о +12.4 +11.6 95 +11 +11 1008.7 1004.7
06 14.06 Ю 4 20 км в посл. час дождь 9/9 360 м
[Sc]
+12.9 +11.6 92 +11 +11 1008.9 1004.9 +12.0 1
07 14.06 ЮЗ 6 20 км 9/9 360 м
[Sc]
+13.5 +12.0 91 +11 +11 1009.1 1005.1
08 14.06 ЮЗ 7 35 км 9/9 450 м
[Cu Sc]
+14.4 +11.5 83 +12 +13 1009.6 1005.6
09 14.06 ЮЗ 6 30 км 9/9 660 м
[Cu Sc Ac trans]
+15.3 +10.7 74 +14 +14 1009.7 1005.8
10 14.06 ЮЗ 6 30 км 9/9 630 м
[Cu Sc Ac trans]
+15.9 +10.8 72 +15 +15 1010.0 1006.0
11 14.06 ЮЗ 7 30 км 9/9 800 м
[Cu Sc]
+16.6 +10.8 69 +15 +16 1010.2 1006.3
12 14.06 Ю 7
{13}
30 км 8/8 750 м
[Cu Sc Ac trans]
+16.6 +11.5 72 +15 +16 1010.4 1006.5
13 14.06 ЮЗ 6 30 км в посл. час ливневой дождь 8/8 800 м
[Cu Sc]
+18.0 +11.0 64 +17 +19 1010.4 1006.5
14 14.06 ЮЗ 7 30 км 8/8 960 м
[Cu Sc]
+17.4 +10.4 63 +16 +17 1010.8 1006.9
15 14.06 Ю 7 40 км {ливн. осадки} 6/6 960 м
[Cu Sc]
+18.3 +11.1 63 +18 +19 1010.6 1006.7
16 14.06 ЮЗ 6 40 км 6/6 1000 м
[Cu Sc]
+18.0 +10.3 61 +17 +19 1010.8 1006.9
17 14.06 ЮЗ 6 50 км 4/4 1050 м
[Cu Sc Ci fib]
+17.9 +9.5 58 +17 +19 1010.7 1006.8
18 14.06 ЮЗ 5 50 км {ливн. осадки} 5/4 1080 м
[Cu Sc Ac trans Ci fib]
+17.0 +9.6 62 +16 +17 1011.1 1007.2 +19.3 0.0
19 14.06 ЮЗ 5 50 км 4/1 1080 м
[Cu Sc Ac trans Ci fib]
+16.6 +8.8 60 +16 +16 1011.1 1007.2
20 14.06 ЮЗ 5 50 км 4/1 1080 м
[Cu Sc Ci fib]
+15.6 +8.5 63 +15 +15 1011.5 1007.6
21 14.06 Ю 3 50 км 6/5 1080 м
[Cu Sc Ci fib]
+15.0 +9.3 69 +14 +14 1011.9 1008.0
22 14.06 Ю 3 30 км н/о +13.2 +9.9 80 +12 +12 1012.3 1008.3
23 14.06 Ю 2 30 км н/о +13.1 +9.7 80 +13 +13 1012.2 1008.3
00 15.06 Ю 2 35 км н/о +12.4 +9.7 84 +11 +11 1012.5 1008.5
01 15.06 Ю 2 35 км н/о +12.3 +9.7 84 +11 +11 1012.3 1008.3
02 15.06 ЮЗ 1 30 км н/о +11.7 +9.7 88 +11 +11 1012.0 1008.0
03 15.06 ЮЗ 2 30 км н/о +11.3 +9.8 90 +10 +10 1011.9 1007.9
04 15.06 Ю 2 30 км н/о +11.3 +9.9 91 +10 +10 1012.2 1008.2
05 15.06 ЮЗ 1 27 км н/о +11.2 +9.9 92 +11 +11 1012.3 1008.3
06 15.06 Ю 2 30 км 1/1 1500 м
[Sc Ac trans]
+13.1 +10.9 86 +12 +14 1012.2 1008.2 +11.0
07 15.06 ЮЗ 4 30 км 9/9 480 м
[Cu Sc Ac trans]
+14.8 +10.5 75 +14 +14 1012.3 1008.3
08 15.06 Ю 4 30 км 4/3 540 м
[Cu med, cong Ac trans]
+16.4 +11.2 71 +16 +19 1012.2 1008.3
09 15.06 Ю 5 30 км 6/5 750 м
[Cu hum Ac trans Ci fib]
+16.9 +10.7 67 +16 +19 1012.3 1008.3
10 15.06 Ю 6 30 км 6/6 900 м
[Cu Sc Ci fib]
+17.4 +9.1 58 +17 +19 1012.0 1008.1
11 15.06 ЮЗ 5 30 км осадки на расстоянии 9/9 1050 м
[Cu Sc Ac trans Ci fib]
+17.4 +9.0 58 +17 +18 1012.3 1008.4
12 15.06 ЮЗ 6 30 км 10/9 1050 м
[Cu Sc Ac trans Ci fib]
+17.0 +9.2 60 +16 +16 1012.7 1008.8
13 15.06 ЮЗ 7 25 км слаб. дождь 10/10 1000 м
[Sc]
+16.3 +9.4 64 +15 +15 1013.0 1009.1
14 15.06 Ю 6 30 км в посл. час дождь 9/8 600 м
[Sc Ac trans]
+17.2 +11.7 70 +16 +17 1012.9 1009.0
15 15.06 Ю 7 35 км в посл. час ливневой дождь 9/9 540 м
[Cu Sc Ac trans]
+16.7 +12.1 74 +15 +16 1012.9 1009.0
16 15.06 ЮЗ 7 30 км 9/5 720 м
[Cu Sc Ac trans]
+18.7 +11.9 65 +19 +19 1012.6 1008.7
17 15.06 ЮЗ 6 35 км 8/8 750 м
[Cu Sc Ac trans]
+17.2 +11.2 68 +16 +17 1012.5 1008.6
18 15.06 Ю 6 30 км {ливн. осадки, дождь} 9/9 720 м
[Cu Sc]
+15.3 +12.1 81 +14 +14 1013.0 1009.0 +19.4 0.0
19 15.06 ЮЗ 5 30 км слаб. ливневой дождь 9/9 500 м
[Cu Sc]
+15.3 +11.8 80 +14 +14 1013.1 1009.2
20 15.06 Ю 5 30 км в посл. час ливневой дождь 8/8 400 м
[Sc]
+14.4 +12.3 87 +13 +13 1013.3 1009.4
21 15.06 ЮЗ 3 30 км н/о +13.2 +11.3 88 +12 +12 1013.8 1009.9
22 15.06 ЮЗ 4 35 км н/о +13.0 +10.6 85 +11 +11 1014.2 1010.2
23 15.06 ЮЗ 3 30 км н/о +12.3 +10.4 88 +11 +11 1014.7 1010.7
00 16.06 ЮЗ 3 30 км н/о +11.2 +9.5 89 +10 +10 1015.1 1011.1 0.0
01 16.06 ЮЗ 3 21 км н/о +10.6 +9.6 94 +9 +9 1015.2 1011.2
02 16.06 ЮЗ 3 17 км н/о +10.1 +9.2 94 +8 +8 1015.5 1011.4
03 16.06 Ю 2 12 км н/о +9.3 +8.8 97 +8 +8 1015.4 1011.4
04 16.06 ЮВ 2 8000 м н/о +8.4 +7.9 97 +6 +6 1015.6 1011.6
05 16.06 ЮВ 2 8000 м н/о +9.2 +9.0 99 +8 +8 1015.6 1011.5
06 16.06 Ю 3 20 км 9/5 300 м
[St Ci sp]
+12.2 +11.2 94 +10 +11 1015.8 1011.8 +8.3 0.0
07 16.06 Ю 4 25 км 9/5 330 м
[St Ac As Cs]
+13.8 +11.8 88 +12 +13 1015.9 1011.9
08 16.06 Ю 4 25 км в посл. час дождь 10/10 360 м
[Sc]
+14.1 +12.4 89 +13 +13 1016.2 1012.2
09 16.06 Ю 6 25 км в посл. час ливневой дождь 9/9 400 м
[Cu Sc]
+14.5 +12.9 90 +13 +13 1016.0 1012.1
10 16.06 ЮЗ 5 25 км слаб. ливневой дождь 9/9 360 м
[Cu Sc]
+15.1 +13.6 91 +14 +14 1016.2 1012.2
11 16.06 ЮЗ 6 25 км в посл. час ливневой дождь 9/9 480 м
[Cu Sc]
+17.9 +13.7 76 +17 +18 1015.8 1011.9
12 16.06 ЮЗ 8 30 км {ливн. осадки, дождь} 5/5 840 м
[Cu med, cong Ci fib]
+19.5 +11.9 61 +20 +22 1016.1 1012.2 0.4
13 16.06 ЮЗ 8
{13}
30 км 6/6 1050 м
[Cu hum Ci fib]
+20.1 +11.4 57 +21 +22 комфорт 1016.1 1012.2
14 16.06 ЮЗ 8 30 км 9/9 1050 м
[Cu Sc]
+19.7 +12.0 61 +21 +21 комфорт 1016.4 1012.5
15 16.06 ЮЗ 8
{14}
35 км 9/9 900 м
[Cu Sc]
+18.8 +11.6 63 +19 +19 1016.8 1012.9
16 16.06 ЮЗ 8 35 км 9/9 900 м
[Sc]
+18.3 +11.4 64 +18 +18 1017.1 1013.2
17 16.06 ЮЗ 8
{13}
35 км 9/9 1380 м
[Sc]
+18.2 +11.3 64 +17 +18 1017.1 1013.2
18 16.06 ЮЗ 7 35 км 9/9 1000 м
[Sc]
+18.9 +11.2 61 +19 +19 1017.4 1013.5 +20.8 0.4
19 16.06 ЮЗ 6 35 км 8/8 1500 м
[Sc]
+17.3 +10.0 62 +16 +16 1017.6 1013.7
20 16.06 ЮЗ 7 35 км 8/8 1500 м
[Sc]
+16.5 +9.4 63 +15 +15 1017.9 1013.9
21 16.06 ЮЗ 5 30 км н/о +15.7 +10.0 69 +15 +15 1018.3 1014.3
22 16.06 ЮЗ 5 30 км н/о +14.5 +10.0 74 +13 +13 1018.4 1014.4
23 16.06 ЮЗ 5 30 км н/о +14.1 +10.0 76 +13 +13 1018.3 1014.4
00 17.06 ЮЗ 4 30 км н/о +14.0 +10.2 78 +13 +13 1018.4 1014.4
01 17.06 ЮЗ 4 30 км н/о +12.9 +10.1 83 +11 +11 1018.2 1014.2
02 17.06 ЮЗ 4 30 км н/о +12.7 +10.3 85 +11 +11 1017.9 1013.9
03 17.06 Ю 3 29 км н/о +12.2 +10.3 88 +11 +11 1017.9 1013.9
04 17.06 Ю 3 24 км н/о +11.6 +10.0 90 +10 +10 1017.9 1013.9
05 17.06 Ю 3 23 км н/о +12.4 +10.8 90 +11 +11 1018.0 1014.0
06 17.06 Ю 4 25 км 1/1 360 м
[St Ci sp]
+13.9 +11.2 84 +12 +14 1018.1 1014.1 +11.6
07 17.06 ЮЗ 4 30 км 8/8 480 м
[Cu Sc]
+15.1 +11.1 77 +14 +15 1018.5 1014.6
08 17.06 ЮЗ 5 30 км 6/6 720 м
[Cu Sc]
+16.4 +10.6 69 +15 +17 1018.4 1014.4
09 17.06 ЮЗ 6 30 км 6/5 900 м
[Cu Sc Ci fib]
+17.0 +9.5 61 +16 +19 1018.3 1014.3
10 17.06 ЮЗ 6 35 км 6/5 1080 м
[Sc diur, vesp Ci fib]
+18.1 +9.5 57 +18 +20 1018.1 1014.1
11 17.06 ЮЗ 6 35 км 6/4 1140 м
[Sc diur, vesp Ci fib]
+19.6 +9.7 53 +20 +24 1017.7 1013.8
12 17.06 ЮЗ 7 35 км 4/3 1260 м
[Sc diur, vesp Ci fib]
+19.6 +8.1 47 +20 +24 1017.6 1013.6
13 17.06 ЮЗ 6 35 км 6/5 1350 м
[Sc diur, vesp Ci fib]
+20.2 +9.9 52 +21 +25 комфорт 1017.2 1013.3
14 17.06 ЮЗ 5 35 км 6/3 1320 м
[Sc diur, vesp Ac trans Ci fib]
+20.8 +9.2 47 +22 +26 комфорт 1016.9 1013.0
15 17.06 ЮЗ 6 40 км 8/3 1380 м
[Sc diur, vesp Ac trans Ci sp]
+20.5 +8.9 47 +22 +23 комфорт 1016.6 1012.7
16 17.06 ЮЗ 5 40 км 8/1 1350 м
[Sc diur, vesp Ac trans Ci sp]
+20.3 +9.7 51 +22 +24 комфорт 1016.4 1012.5
17 17.06 ЮЗ 6 40 км 6/1 1350 м
[Sc diur, vesp Ac trans Ci sp]
+20.4 +9.2 49 +22 +23 комфорт 1016.2 1012.3
18 17.06 ЮЗ 5 40 км 6/1 1300 м
[Sc diur, vesp Ac trans Ci sp]
+18.7 +8.9 53 +19 +20 1016.2 1012.3 +21.9

 

Местоположение метеостанции Норхолт (Великобритания): широта 51.55 долгота -0.42 высота над уровнем моря 39 м.

В архиве по умолчанию представлена погода в Норхолте за последнюю неделю. Архивные данные за месяц целиком и за предыдущие месяцы, начиная с января 2011 года, Вы можете получить, выбрав интересующий диапазон дат из раскрывающегося списка и нажав кнопку "Ввод!".


*Определитесь, кто Вы:
робот инопланетянин человек

Внимание! Время в таблицах - всемирное. Для получения местного времени необходимо прибавить поправку, которая равна 0 ч.

Смотрите также архив погоды в соседних городах и на ближайших метеорологических станциях:

Погода в Аэропорту Хитроу (Великобритания) (8 км)
Погода в Лондоне (Великобритания) (21 км)
Погода в Хай-Уикоме (Великобритания) (30 км)
Погода в Чарлвуде (Великобритания) (36 км)
Погода на Аэродроме Кенли (Великобритания) (36 км)
Погода в Фарнборо (Великобритания) (39 км)
Погода в Бенсоне (Великобритания) (46 км)
Погода в Грейвзенде (Великобритания) (51 км)
Погода в Одихеме (Великобритания) (51 км)
Погода в Ротамстеде (Великобритания) (61 км)

Пояснения к столбцам:

Ветер - указаны скорость ветра в м/с - средняя за 10 мин, порывы в срок и между сроками (в фигурных скобках) и направление, откуда дует ветер: С - северный, СВ - северо-восточный, В - восточный, ЮВ - юго-восточный, Ю - южный, ЮЗ - юго-западный, З - западный, СЗ - северо-западный.
Видимость - горизонтальная дальность видимости в метрах или километрах. При видимости от 1 до 10 км при отсутствии осадков обычно наблюдается дымка, при ухудшении видимости до 1 км и менее - туман. В сухую погоду видимость может ухудшаться дымом, пылью или мглою.
Явления - указаны атмосферные явления, наблюдавшиеся в срок или в последний час перед сроком; фигурными скобками обозначены явления, наблюдавшиеся между сроками (за 1-3 часа до срока); квадратными скобками обозначены град или гололедные отложения с указанием их диаметра в мм.
Облачность - указаны через наклонную черту общая и нижняя облачность в баллах и высота нижней границы облаков в метрах; квадратными скобками обозначены формы облаков: Ci - перистые, Cs - перисто-слоистые, Cc - перисто-кучевые, Ac - высококучевые, As - высокослоистые, Sc - слоисто-кучевые, Ns - слоисто-дождевые, Cu - кучевые, Cb - кучево-дождевые. Подробнее классификацию облаков см. в Атласе облаков (PDF).
T - Температура воздуха - температура, измеренная на высоте 2 м над землей.
Td - Температура точки росы - температура, при понижении до которой содержащийся в воздухе водяной пар достигнет насыщения.
f - Относительная влажность воздуха - влажноcть воздуха, измеренная на высоте 2 м над землей.
Te - Эффективная температура - температура, которую ощущает одетый по сезону человек в тени. Характеристика душности погоды. При расчете учитывается влияние влажности воздуха и скорости ветра на теплоощущения человека.
Tes - Эффективная температура на солнце - температура, которую ощущает человек, с поправкой на солнечный нагрев. Характеристика знойности погоды. Зависит от высоты солнца над горизонтом, облачности и скорости ветра. Ночью, в пасмурную погоду, а также при ветре 12 м/с и более поправка равна нулю.
P - Атмосферное давление - приведенное к уровню моря атмосферное давление.
Po - Атмосферное давление - измеренное на уровне метеостанции атмосферное давление.
Tmin - Минимальная температура - минимум температуры воздуха на высоте 2 м над землей.
Tmax - Максимальная температура - максимум температуры воздуха на высоте 2 м над землей.
R - Количество осадков - Количество выпавших осадков за период времени, мм. При наведении курсора мыши на число - период времени, за который выпало указанное количество осадков.
R24 - Количество осадков - Количество выпавших осадков за 24 часа, мм.
S - Снежный покров - Высота снежного покрова, см. При наведении курсора мыши на число - состояние снежного покрова и степень покрытия местности в баллах.